Allentown, PA

11:18 PM EDT on June 22, 2018 (GMT -0400)
Lehigh Valley International

Weather History for KABE - October, 2017

Change the Weather History Date:

Thursday, October 12, 2017

  Actual Average Record
Temperature  
Mean Temperature 58 °F 54 °F  
Max Temperature 63 °F 65 °F 86 °F (1928)
Min Temperature 52 °F 42 °F 25 °F (1964)
Degree Days  
Heating Degree Days 7 12  
Month to date heating degree days 35 118  
Since 1 July heating degree days 95 233  
Cooling Degree Days 0 0  
Month to date cooling degree days 49 3  
Year to date cooling degree days 1001 753  
Growing Degree Days 8 (Base 50)    
Moisture  
Dew Point 52 °F    
Average Humidity 77    
Maximum Humidity 93    
Minimum Humidity 60    
Precipitation  
Precipitation 0.38 in 0.13 in 2.60 in (1993)
Month to date precipitation 1.24 1.68  
Year to date precipitation 44.18 36.07  
Snow  
Snow 0.00 in 0.00 in 0.00 in ()
Month to date snowfall 0.0 0.0  
Since 1 July snowfall 0.0 0.0  
Since 1 September snowfall 0.0 0.0  
Snow Depth 0.00 in    
Sea Level Pressure  
Sea Level Pressure 30.29 in    
Wind  
Wind Speed 10 mph (ENE)    
Max Wind Speed 17 mph    
Max Gust Speed 22 mph    
Visibility 8 miles    
Events Rain    
T = Trace of Precipitation, MM = Missing Value Source: NWS Daily Summary

Daily Weather History Graph

Daily Weather History Graph

Search for Another Location

Airport or City:

Astronomy

Oct. 12, 2017 Rise Set
Actual Time 7:09 AM EDT 6:25 PM EDT
Civil Twilight 6:42 AM EDT 6:53 PM EDT
Nautical Twilight 6:10 AM EDT 7:24 PM EDT
Astronomical Twilight 5:39 AM EDT 7:56 PM EDT
Moon No Moon Rise 2:19 PM EDT (10/12)
Length of Visible Light 12h 10m
Length of Day
11h 15m
Waning Gibbous, 49% of the Moon is Illuminated
Oct 12
Waning Gibbous
Oct 19
New
Oct 27
First Quarter
Nov 4
Full
Nov 10
Last Quarter

Hourly Weather History & Observations

Time (EDT) Temp. Dew Point Humidity Pressure Visibility Wind Dir Wind Speed Gust Speed Precip Events Conditions
12:51 AM 63.0 °F 57.9 °F 84% 30.14 in 7.0 mi East 15.0 mph - 0.04 in Rain Light Rain
1:44 AM 62.1 °F 57.9 °F 86% 30.17 in 3.0 mi ENE 8.1 mph - 0.07 in Rain Heavy Rain
1:51 AM 62.1 °F 59.0 °F 90% 30.17 in 3.0 mi ENE 6.9 mph - 0.10 in Rain Heavy Rain
2:19 AM 61.0 °F 57.9 °F 90% 30.19 in 3.0 mi NE 12.7 mph - 0.05 in Rain Rain
2:25 AM 61.0 °F 57.0 °F 87% 30.19 in 3.0 mi NE 12.7 mph - 0.07 in Rain Rain
2:51 AM 59.0 °F 55.9 °F 90% 30.19 in 3.0 mi NE 16.1 mph - 0.15 in Rain Heavy Rain
3:51 AM 57.9 °F 54.0 °F 87% 30.22 in 9.0 mi ENE 11.5 mph - 0.07 in Rain Light Rain
3:59 AM 57.9 °F 54.0 °F 87% 30.21 in 8.0 mi ENE 13.8 mph - 0.00 in Rain Light Rain
4:18 AM 57.9 °F 54.0 °F 87% 30.22 in 6.0 mi ENE 9.2 mph - 0.02 in Rain Rain
4:51 AM 57.9 °F 54.0 °F 87% 30.22 in 10.0 mi East 8.1 mph - 0.03 in Rain Light Rain
5:14 AM 57.9 °F 54.0 °F 87% 30.22 in 10.0 mi East 13.8 mph - 0.00 in Rain Light Rain
5:34 AM 57.0 °F 54.0 °F 89% 30.23 in 9.0 mi ENE 11.5 mph - 0.00 in Rain Light Rain
5:51 AM 55.9 °F 53.1 °F 90% 30.25 in 7.0 mi NE 13.8 mph - 0.01 in Rain Light Rain
6:28 AM 55.0 °F 52.0 °F 89% 30.26 in 10.0 mi ENE 13.8 mph - 0.02 in Rain Light Rain
6:51 AM 55.0 °F 51.1 °F 86% 30.27 in 10.0 mi NE 13.8 mph - 0.02 in   Overcast
7:41 AM 55.0 °F 51.1 °F 86% 30.29 in 10.0 mi ENE 11.5 mph - 0.00 in   Overcast
7:51 AM 55.0 °F 51.1 °F 86% 30.29 in 10.0 mi ENE 10.4 mph - 0.00 in   Overcast
8:51 AM 54.0 °F 50.0 °F 86% 30.32 in 10.0 mi NE 11.5 mph - N/A   Overcast
9:51 AM 55.0 °F 51.1 °F 86% 30.33 in 10.0 mi ENE 10.4 mph - N/A   Overcast
10:51 AM 55.0 °F 51.1 °F 86% 30.34 in 4.0 mi NE 10.4 mph - 0.00 in Rain Light Rain
11:04 AM 55.0 °F 51.1 °F 86% 30.34 in 6.0 mi ENE 12.7 mph - 0.00 in Rain Light Rain
11:12 AM 55.9 °F 52.0 °F 87% 30.34 in 8.0 mi NE 12.7 mph - 0.00 in   Overcast
11:51 AM 57.9 °F 52.0 °F 81% 30.35 in 10.0 mi East 12.7 mph - 0.00 in   Overcast
12:51 PM 60.1 °F 52.0 °F 75% 30.34 in 10.0 mi ENE 12.7 mph - N/A   Overcast
1:51 PM 60.1 °F 50.0 °F 69% 30.33 in 10.0 mi East 10.4 mph - N/A   Overcast
2:51 PM 61.0 °F 50.0 °F 67% 30.32 in 10.0 mi East 11.5 mph - N/A   Overcast
3:43 PM 62.1 °F 50.0 °F 65% 30.32 in 10.0 mi East 10.4 mph - N/A   Overcast
3:51 PM 62.1 °F 50.0 °F 65% 30.32 in 10.0 mi ENE 11.5 mph - N/A   Overcast
4:51 PM 62.1 °F 50.0 °F 65% 30.32 in 10.0 mi East 9.2 mph - N/A   Overcast
5:51 PM 61.0 °F 48.0 °F 62% 30.34 in 10.0 mi East 11.5 mph - N/A   Overcast
6:51 PM 61.0 °F 46.9 °F 60% 30.35 in 10.0 mi ESE 9.2 mph - N/A   Overcast
7:51 PM 60.1 °F 46.9 °F 62% 30.36 in 10.0 mi East 6.9 mph - N/A   Overcast
8:51 PM 59.0 °F 46.9 °F 64% 30.38 in 10.0 mi East 5.8 mph - N/A   Overcast
9:51 PM 57.9 °F 46.9 °F 67% 30.39 in 10.0 mi East 4.6 mph - N/A   Mostly Cloudy
10:51 PM 57.0 °F 48.0 °F 72% 30.38 in 10.0 mi ESE 3.5 mph - N/A   Mostly Cloudy
11:51 PM 54.0 °F 46.9 °F 77% 30.39 in 10.0 mi East 4.6 mph - N/A   Mostly Cloudy